Flight Briefing for CPX785

Departure Arrival
Tan Son Nhat International Airport (VVTS)
Click to view FAA NOTAMS
Incheon International Airport (RKSI)
Click to view FAA NOTAMS
Departure Time Arrival Time
N/A N/A
Aircraft Distance
B767-300BDSF 2216nm
Departure METAR Arrival METAR
VVTS 250330Z 23006KT 190V260 9999 BKN017 33/26 Q1009 NOSIG RKSI 250330Z 22011KT 180V250 CAVOK 24/11 Q1016 NOSIG
Suggested Route
TANOS1B PTH N500 AGSAM L625 ABVAR M646 POTIB Q11 DRAKE Q11 WP900 L4 LIPLO Y741 BOLUT B576 OLMEN OLMEN1P


View recent IFR Routes data
Notes



Charts and Procedures

Charts for VVTS
No chart available
Charts for RKSI
No chart available

Windy.com Weather Map